Wind_Speed
23 23 23 23 24 24 22 22 21 21 20 18 17 17 14 11 8 8 10 8 7 12 17 17 18 19 20 25 28 30 32 32 32 34 35 35 35 34 33 33 32 32 33 33 33 32 32 32 32 32 31 31 32 31 31 33 33 32 32 33 33 33 32 31 31 30 27 23 19 15 14 15 18 18
23 23 23 23 24 24 22 22 21 19 18 18 19 20 19 17 11 7 8 11 9 11 15 18 21 26 28 29 32 32 32 33 33 33 34 34 33 33 33 33 33 32 32 33 33 33 33 33 32 32 32 32 32 31 30 31 32 31 31 32 32 32 31 30 30 30 28 24 20 16 14 14 17 20
23 22 23 23 24 24 23 22 21 19 19 20 21 21 20 20 18 13 8 10 11 11 17 24 28 32 33 32 33 34 33 32 32 32 33 32 32 33 33 33 32 32 33 33 34 34 34 34 34 33 33 32 32 31 30 30 31 31 30 31 31 31 31 30 29 29 29 25 21 18 16 14 15 19
23 22 23 23 24 24 23 22 21 21 21 21 21 21 21 21 21 19 11 9 15 20 24 31 33 32 33 34 33 34 33 31 31 31 31 31 33 34 35 34 34 33 34 35 35 35 35 34 34 33 32 31 30 30 29 28 29 30 29 29 30 30 30 29 28 28 27 25 22 19 17 16 15 16
23 22 23 24 24 24 22 21 21 21 21 22 21 21 21 21 21 20 15 10 15 23 24 28 33 33 32 32 31 31 33 33 31 30 30 33 36 37 37 36 34 32 33 33 33 33 33 32 32 31 30 30 29 29 29 28 28 29 29 28 29 28 28 29 28 28 27 26 23 20 18 18 17 17
24 23 23 24 24 23 22 21 21 22 22 22 22 21 21 22 22 20 19 15 12 17 21 25 29 29 27 29 30 30 32 33 32 31 33 35 35 35 34 33 32 30 30 31 31 31 31 31 30 30 29 29 29 29 29 28 27 28 28 28 28 28 27 28 28 28 28 27 25 21 18 17 18 19
24 23 24 24 24 22 21 21 22 22 22 21 21 23 23 23 23 21 21 18 14 15 21 24 25 26 25 27 30 31 31 31 31 33 34 34 32 31 31 31 32 30 29 30 31 31 31 30 30 29 29 28 28 27 28 28 27 28 28 27 28 28 27 27 27 27 28 27 26 22 19 18 19 20
25 25 24 25 24 22 21 22 23 22 22 22 23 25 25 23 23 22 21 21 20 19 21 23 25 26 27 29 31 32 30 29 31 32 31 30 30 30 30 30 30 29 28 28 28 28 28 28 27 27 26 26 26 26 26 27 27 27 27 27 27 28 27 27 26 27 27 27 25 23 21 19 18 18
26 26 26 25 23 22 21 22 23 22 22 24 25 26 26 24 23 22 21 22 23 24 24 25 26 26 28 31 31 29 28 30 31 29 28 29 29 29 27 26 26 26 25 24 25 26 26 26 27 27 27 28 28 28 28 28 28 27 27 27 27 28 28 27 27 27 27 27 25 23 22 20 16 15
26 26 26 25 24 23 24 24 23 22 23 26 27 25 24 23 22 22 21 22 23 24 26 26 27 27 28 29 28 27 27 29 29 27 28 28 26 25 25 24 23 23 24 25 27 29 31 31 31 31 31 30 30 30 30 30 30 29 28 28 27 27 28 28 28 27 27 28 26 26 25 22 17 14
27 26 26 25 24 24 26 25 23 23 25 26 26 24 23 22 21 20 20 21 22 23 24 25 26 26 25 26 29 29 26 26 27 26 25 25 24 23 23 24 24 24 25 27 28 29 30 31 31 30 30 30 30 31 30 30 30 30 30 30 29 28 28 28 28 28 27 28 27 27 27 24 18 15
26 26 25 25 25 26 26 25 23 23 25 25 23 23 22 20 19 18 18 20 20 22 24 23 23 21 22 26 28 27 24 22 21 22 22 23 26 26 24 25 26 27 27 28 29 28 28 28 29 30 31 32 30 30 29 29 29 29 30 31 31 30 29 28 28 28 27 27 28 27 28 26 21 17
26 25 25 25 26 26 26 25 23 22 22 21 21 21 18 17 17 17 18 19 20 22 21 19 17 16 19 25 25 21 21 19 20 24 25 25 28 29 28 29 29 29 30 29 29 27 25 26 28 29 30 30 26 26 26 26 27 27 27 29 30 31 31 30 28 28 28 27 27 27 28 27 23 18
25 24 25 25 25 26 25 23 21 20 20 20 21 20 18 17 18 18 19 19 20 21 16 12 13 11 13 21 24 22 23 25 26 26 23 24 27 26 25 27 28 26 26 26 27 26 23 24 27 28 29 29 27 27 29 28 27 26 25 26 28 30 30 30 29 28 28 27 26 26 27 27 24 18
24 23 23 23 23 24 23 20 18 18 19 19 20 20 19 20 20 20 20 20 20 19 13 10 14 12 12 20 24 23 25 26 24 22 21 24 25 18 12 15 18 19 20 23 25 25 22 22 26 28 30 32 32 32 33 31 28 27 26 26 27 28 29 29 29 28 28 28 27 26 26 27 26 21
23 21 20 20 21 21 20 17 17 18 18 18 18 18 19 20 21 22 22 22 21 18 14 14 16 17 18 21 23 23 24 23 22 23 24 25 24 17 11 12 18 21 21 22 25 25 23 21 24 28 29 30 30 30 29 28 27 27 26 26 27 27 27 28 28 28 28 28 27 27 25 26 26 23
22 20 19 19 18 17 16 15 16 17 18 19 19 19 19 20 21 21 21 22 21 20 20 18 19 23 24 22 23 25 26 26 27 27 25 23 21 19 17 19 26 27 23 22 24 24 24 21 22 27 28 27 28 29 27 27 27 26 26 26 27 28 27 28 28 28 28 28 28 28 26 25 25 25
20 19 19 18 16 14 13 14 15 17 18 19 19 21 21 21 21 20 20 20 21 22 24 23 25 28 28 25 28 31 31 30 29 26 24 20 18 21 25 29 32 31 27 26 22 19 22 22 22 26 28 26 28 30 28 27 28 27 27 27 28 28 28 28 29 29 28 28 29 29 28 25 25 27
17 17 17 16 14 12 12 14 14 15 16 18 19 20 21 21 20 19 18 20 23 25 24 25 26 28 29 30 33 33 31 29 28 27 27 25 23 26 29 28 29 30 27 24 19 15 18 22 22 24 26 25 27 30 29 29 30 30 30 30 30 30 28 28 29 29 29 28 30 31 29 27 26 27
16 16 15 13 12 11 13 14 14 13 14 16 17 18 19 19 19 19 21 22 22 22 22 23 26 28 31 31 30 29 28 27 28 29 27 25 23 22 19 17 20 23 22 19 18 14 16 20 22 22 24 24 27 30 30 30 31 30 30 30 31 31 30 28 28 29 29 29 30 31 29 27 28 28
17 16 14 12 12 13 14 15 13 13 14 14 15 17 18 18 18 21 25 23 20 19 21 25 29 29 29 27 25 25 25 24 25 25 21 19 18 13 10 9 12 18 21 21 20 15 14 18 20 20 23 25 26 29 30 30 31 30 29 29 30 31 30 29 28 29 29 29 30 31 29 28 28 28
17 15 13 13 13 14 14 13 12 12 12 13 15 16 15 16 19 23 25 22 21 23 27 30 30 28 24 22 21 21 21 21 22 20 18 19 17 11 8 9 10 16 24 24 17 12 12 16 17 16 18 20 24 29 30 30 31 29 28 28 29 31 30 29 28 28 29 30 30 31 30 28 28 28
16 15 13 12 11 11 11 11 11 11 11 12 13 13 11 14 20 21 20 20 24 29 31 31 29 26 22 20 20 20 20 19 18 18 19 21 19 13 11 11 9 9 14 13 6 5 8 12 14 13 10 9 14 21 24 25 28 27 26 25 28 31 31 29 28 28 29 29 30 30 30 29 28 27
15 13 13 13 12 10 10 10 11 10 11 12 10 9 12 16 18 18 19 23 27 29 30 29 27 26 24 23 22 22 21 20 18 19 20 21 21 19 18 16 11 8 15 18 12 9 12 12 13 15 12 7 8 13 16 19 22 24 24 24 26 29 29 28 28 29 30 30 29 30 30 29 29 28
16 14 13 14 14 11 10 10 10 10 10 10 9 10 13 15 16 18 23 26 25 24 25 26 26 26 26 26 25 23 22 21 21 22 23 22 22 22 21 20 13 12 24 32 23 16 16 15 13 15 14 10 8 11 16 20 20 22 24 24 26 27 26 26 27 28 30 29 28 30 30 30 29 29
17 15 14 14 13 10 8 8 9 9 8 7 9 11 11 12 14 18 21 21 21 22 23 24 25 25 26 26 26 25 24 24 24 25 25 25 25 24 24 24 20 19 29 35 27 20 19 17 14 12 10 8 8 10 12 14 17 21 24 24 25 26 25 23 24 26 28 29 28 30 31 31 30 30
16 14 14 13 11 8 7 8 7 6 5 6 8 8 9 11 14 16 16 16 19 22 22 21 23 24 24 26 27 27 27 27 27 27 27 26 27 27 27 25 24 25 30 32 28 25 25 22 19 16 12 9 8 7 7 9 12 15 21 23 25 26 24 22 23 24 26 27 28 29 30 30 29 29
14 13 13 11 8 7 6 5 5 4 3 4 5 5 7 11 13 13 14 16 19 21 20 20 21 23 24 26 26 27 28 28 27 26 25 26 26 26 24 21 18 18 20 21 21 21 23 24 23 20 17 12 7 6 7 10 11 10 17 19 21 23 24 21 22 24 24 25 26 27 27 28 28 28
14 13 10 8 7 6 5 6 7 7 4 2 3 5 7 9 10 11 13 17 19 19 19 20 21 23 25 26 25 26 26 25 26 26 26 28 28 28 26 22 18 15 13 14 14 13 16 21 23 21 19 17 13 11 9 10 12 10 15 14 13 18 23 23 21 23 24 24 25 26 26 27 28 28
12 11 9 9 8 7 6 7 8 6 4 3 3 4 5 6 9 11 14 16 18 18 19 21 22 24 26 25 25 25 24 24 25 26 27 29 32 34 30 25 23 22 19 16 15 15 15 17 20 20 20 18 16 16 15 11 11 8 11 14 13 13 18 23 24 23 24 24 23 25 26 25 26 27
13 13 11 10 9 7 6 6 5 4 3 3 2 2 4 6 9 11 12 14 15 16 18 21 22 23 25 25 26 26 25 24 26 26 25 26 31 36 30 20 20 26 27 27 25 22 20 18 14 13 17 18 17 19 18 12 7 3 4 10 12 10 12 20 22 21 22 21 18 19 20 22 23 25
16 15 13 11 10 9 8 6 4 4 3 1 1 2 5 7 9 10 12 13 15 16 18 20 22 24 25 25 27 27 25 26 27 27 25 23 27 33 27 14 13 21 28 35 39 34 27 22 17 10 4 2 4 6 4 4 9 11 11 10 12 11 11 14 15 14 15 15 14 15 17 20 22 24
17 15 14 12 11 10 8 7 6 5 3 2 2 3 6 7 9 11 13 15 17 18 19 21 22 25 25 25 27 27 26 27 28 27 25 23 25 29 24 13 12 16 18 25 38 42 36 27 18 16 21 25 27 23 17 12 14 17 16 16 17 15 11 7 9 13 15 15 15 15 16 19 22 24
16 16 15 14 12 11 10 9 8 6 5 3 3 4 6 8 10 12 14 16 17 18 19 20 21 23 24 25 26 27 26 28 29 27 25 23 23 26 22 13 13 18 16 17 28 38 41 36 24 13 13 22 35 42 35 20 14 18 21 22 21 17 13 10 5 12 18 18 16 13 13 15 19 21
17 18 17 15 13 12 11 10 8 6 5 4 4 5 6 8 10 12 13 15 16 17 18 20 21 22 23 23 24 25 24 26 28 28 28 27 24 23 21 15 13 18 20 19 23 30 36 37 29 16 9 8 16 28 35 33 27 23 21 22 24 22 17 14 9 7 14 16 15 10 8 10 14 18
19 19 19 17 15 13 12 10 8 7 5 4 4 5 6 7 9 10 12 13 14 16 18 19 20 22 23 22 23 23 23 24 25 26 28 28 25 22 22 20 18 19 20 19 22 27 31 30 23 13 8 7 7 8 17 27 32 28 21 17 21 25 23 18 13 10 8 9 12 10 6 7 10 14
19 19 19 18 16 14 12 11 9 7 6 4 4 5 5 6 7 8 9 10 12 14 16 18 19 20 22 22 22 23 24 23 23 23 24 25 24 22 21 22 23 24 24 23 27 30 27 22 18 12 7 7 7 5 7 15 25 32 29 21 20 24 25 22 18 15 12 6 5 8 7 9 11 13
20 20 20 18 17 14 12 12 10 8 7 6 4 4 5 5 5 6 8 9 11 13 15 16 18 19 21 22 22 23 24 24 23 23 24 24 23 21 18 18 21 23 23 27 37 39 30 21 19 15 8 4 4 4 6 9 15 25 30 26 24 26 28 26 21 16 14 12 8 3 5 9 11 13
21 22 21 20 18 15 13 13 11 9 8 7 5 4 4 4 4 5 7 8 10 12 14 16 17 18 20 21 21 20 22 23 23 23 24 23 21 21 20 18 19 20 19 23 33 37 31 26 25 22 15 9 7 8 7 5 7 19 27 27 26 28 27 26 23 18 15 16 12 5 6 8 8 8
21 22 22 20 18 16 14 13 12 10 9 7 6 5 4 4 4 5 6 8 9 11 12 14 16 18 19 20 21 20 20 21 21 21 23 23 21 22 21 19 19 20 17 14 19 23 25 27 29 27 23 18 12 10 8 5 8 19 28 29 28 27 25 24 23 20 17 18 14 7 6 6 6 7
21 22 21 20 17 16 14 13 12 11 9 8 6 5 4 4 3 4 5 6 7 9 11 13 15 17 18 19 20 20 20 21 22 22 23 23 22 22 23 22 21 21 15 9 11 17 22 26 27 25 23 23 18 12 10 8 8 14 24 28 29 27 24 23 23 20 20 22 17 9 5 4 3 4
22 22 21 20 18 16 15 14 13 11 10 9 7 6 5 4 3 3 3 4 5 6 9 11 13 14 16 17 18 19 19 19 21 21 22 23 22 23 24 23 21 20 16 11 13 19 23 27 28 25 26 30 28 16 8 7 6 8 18 28 30 27 25 25 24 22 23 26 21 14 8 6 3 2
23 22 22 21 18 16 15 14 13 12 10 9 8 7 6 5 4 3 2 2 4 5 7 9 11 12 14 15 16 17 18 18 19 20 21 22 21 20 21 21 20 20 19 18 20 24 26 28 30 27 26 30 28 15 5 7 9 9 14 23 29 29 27 25 24 24 24 24 22 18 13 8 4 3
24 23 22 21 19 18 16 14 13 12 11 10 9 8 7 6 5 4 3 2 3 4 6 8 9 11 13 14 15 16 17 17 18 18 19 20 20 19 19 20 20 21 23 22 23 26 27 28 28 26 24 25 24 16 8 8 10 11 13 18 25 30 31 28 26 26 26 25 24 20 16 12 9 6
24 23 22 22 20 19 17 15 14 13 12 11 10 9 8 8 7 5 3 2 2 3 5 6 7 9 11 12 14 15 16 16 17 18 18 19 20 20 21 21 21 21 23 24 22 23 25 26 27 25 23 21 21 20 16 12 12 13 14 17 22 27 28 27 25 23 22 25 26 24 19 17 14 11
Wind_Direction
238 239 241 244 247 248 251 256 258 259 259 261 267 275 278 278 289 300 296 290 285 289 292 292 292 295 297 299 299 299 299 298 299 298 296 294 292 291 291 289 287 286 285 284 283 282 281 280 279 280 280 279 280 280 279 281 283 284 285 287 288 290 293 294 295 296 298 303 306 305 310 302 296 299
237 239 243 245 246 247 251 256 257 256 260 265 272 275 274 270 268 277 293 289 285 293 293 289 294 301 302 302 301 299 298 298 298 297 294 292 291 291 292 290 288 286 285 285 284 283 282 281 280 281 281 279 279 279 278 279 281 282 283 285 286 287 291 292 291 294 296 300 305 303 300 299 295 294
236 239 243 243 244 247 251 253 254 257 264 270 273 272 270 267 264 262 275 285 279 287 296 296 297 300 301 303 301 298 297 297 298 297 293 292 294 295 294 291 288 286 286 285 284 283 282 282 281 281 281 280 278 278 277 277 278 280 281 282 285 286 288 290 289 291 295 297 301 301 294 293 293 292
236 238 241 243 245 247 249 251 255 261 267 270 270 269 268 264 262 262 262 272 279 283 291 295 297 299 301 301 299 297 297 297 297 297 293 294 298 298 295 292 289 286 285 284 283 282 282 281 281 280 280 279 279 278 277 276 276 278 279 279 282 284 285 288 288 286 290 292 293 296 292 285 285 284
236 237 240 244 245 246 246 252 259 263 267 269 267 266 264 259 259 262 260 264 282 286 290 292 294 298 300 299 297 297 297 298 298 296 295 297 300 298 296 294 292 288 286 284 283 282 281 280 279 279 278 278 278 279 277 276 275 275 277 277 278 281 282 284 286 284 285 288 287 290 295 288 279 275
235 237 240 243 244 243 246 254 263 267 267 266 266 264 260 257 260 263 263 266 277 289 294 293 293 296 297 295 295 296 296 298 298 297 298 300 299 298 297 296 293 291 287 285 283 282 280 280 279 278 278 278 278 278 277 275 275 273 273 274 274 276 278 279 282 283 284 287 287 288 295 294 279 269
232 235 238 240 240 241 247 258 266 268 266 264 264 263 259 259 263 265 265 267 273 286 293 293 293 295 296 293 294 296 295 295 298 299 300 300 298 297 297 296 294 292 289 286 284 282 280 279 279 278 278 279 278 278 278 275 274 273 271 271 272 272 274 275 277 280 281 284 289 290 293 297 285 265
230 233 235 237 239 241 249 260 267 267 265 264 262 261 261 262 266 269 267 267 273 283 288 289 290 292 294 294 294 296 296 296 299 299 298 298 297 297 297 296 295 294 291 288 285 283 281 279 279 279 277 279 279 279 279 276 274 272 270 269 269 269 270 271 271 274 278 279 282 285 286 290 288 269
231 233 235 238 240 243 251 260 265 265 265 266 264 261 264 267 269 272 272 271 275 280 282 285 289 290 291 293 294 296 299 301 300 297 296 297 296 296 297 296 295 296 293 291 289 286 284 282 280 280 279 279 279 278 277 276 273 271 269 267 266 266 267 267 267 269 273 274 271 269 271 274 275 269
233 235 237 241 242 245 252 257 261 264 266 267 265 263 266 272 274 274 273 275 278 279 278 283 289 290 290 293 295 298 301 300 299 299 299 297 295 295 298 297 295 294 291 289 288 285 283 282 280 279 278 277 277 277 275 273 271 268 267 266 264 264 264 264 265 265 266 267 265 260 261 265 265 259
236 237 239 242 245 246 251 256 262 267 269 268 266 266 270 274 273 271 272 277 280 280 280 282 285 288 291 295 296 298 300 297 295 298 300 298 297 297 297 296 294 292 290 287 286 283 281 280 278 276 276 275 274 275 273 272 270 266 264 263 262 262 262 261 261 262 262 261 259 256 255 258 263 257
236 239 241 244 246 247 250 258 265 269 271 268 265 267 271 270 267 268 272 278 280 280 280 279 281 288 296 297 295 296 299 297 293 296 298 296 298 299 296 295 294 292 290 287 285 283 280 278 276 275 276 276 274 273 272 270 269 265 263 261 260 260 260 260 259 257 259 258 254 253 253 252 259 261
236 238 241 244 246 248 253 258 262 267 268 264 262 268 271 267 266 269 273 276 279 279 277 277 283 293 297 296 296 296 295 294 294 296 295 291 293 297 295 291 290 288 286 284 282 279 278 278 277 276 276 275 273 272 271 270 269 267 263 260 259 259 257 257 258 256 255 256 252 249 250 249 254 260
236 237 241 245 247 251 255 255 256 263 266 264 267 273 274 272 274 276 274 273 276 276 273 282 294 296 293 292 293 293 291 291 292 292 292 291 293 295 293 289 289 285 280 280 280 277 275 277 277 275 273 272 271 271 270 270 269 267 265 262 258 258 256 254 254 254 252 252 251 248 248 246 247 253
237 238 242 246 247 249 249 248 253 261 265 268 273 275 276 278 278 277 276 275 276 276 277 293 298 291 290 292 291 289 289 288 288 289 292 293 292 289 285 290 293 291 287 286 284 281 277 275 275 274 272 272 271 271 270 269 267 265 263 262 259 257 256 253 251 251 250 248 247 246 245 244 243 246
237 238 241 242 243 244 243 247 257 265 268 271 275 276 278 280 279 277 277 278 282 291 299 300 294 287 287 288 285 284 289 291 293 294 291 288 285 282 281 288 292 296 297 292 286 283 281 275 273 272 271 271 271 270 269 266 264 262 260 258 259 257 254 253 249 247 247 245 243 242 240 241 241 240
237 238 237 237 237 239 242 252 263 269 275 278 280 284 285 285 284 281 278 278 285 298 302 294 285 284 282 278 278 287 295 298 296 291 286 282 282 285 287 288 289 293 295 291 287 285 281 276 273 271 270 271 271 269 267 264 261 261 259 256 256 256 253 251 248 245 244 243 240 237 235 236 236 233
237 235 231 231 235 240 249 262 270 275 281 285 287 292 292 289 287 282 279 285 291 296 294 285 280 284 284 282 287 294 296 292 288 287 288 289 290 289 289 288 287 288 286 284 283 282 279 275 271 269 270 271 271 268 265 263 261 259 258 256 254 254 252 249 246 243 242 240 237 234 231 232 232 228
232 229 225 228 237 249 260 270 277 279 282 285 288 290 288 285 285 283 284 293 296 294 291 286 286 292 294 293 294 296 295 291 288 290 293 294 295 295 294 291 287 285 282 276 271 272 276 273 268 267 271 271 270 269 266 263 261 258 256 255 252 251 249 246 244 241 239 238 234 230 228 229 229 226
226 227 225 232 245 258 269 274 276 275 277 281 283 284 284 285 286 288 292 296 295 293 292 293 295 297 297 297 296 295 296 295 295 296 295 295 298 298 295 292 287 286 284 272 262 266 274 271 267 269 273 271 270 271 268 264 261 257 253 251 248 247 245 243 242 239 236 235 231 226 226 227 227 226
221 224 228 241 253 263 272 275 275 274 273 278 282 283 286 288 291 297 301 301 297 293 294 297 299 299 298 299 298 298 299 300 301 302 300 298 301 296 286 292 291 289 291 279 262 260 270 269 268 272 274 271 269 270 269 266 263 258 252 247 243 241 241 240 240 237 233 232 229 224 223 224 225 225
217 222 233 247 256 266 273 274 273 273 274 279 282 282 286 295 303 306 306 303 301 301 303 304 305 305 306 306 306 307 307 305 304 304 299 297 298 287 273 290 296 292 294 289 267 249 258 265 266 271 276 273 270 268 265 263 262 258 251 244 237 235 236 237 237 234 231 229 226 222 221 221 222 222
214 223 234 242 250 263 271 272 270 271 276 281 281 284 298 311 310 307 305 307 311 312 312 314 316 318 322 323 323 323 320 315 308 302 297 293 289 282 278 285 293 294 294 295 276 237 262 274 272 272 277 280 276 271 266 261 257 252 246 237 229 227 231 235 236 233 228 226 223 221 219 219 219 219
207 218 233 243 252 260 265 269 269 271 278 284 285 296 311 311 307 306 308 312 316 315 316 321 325 330 336 336 335 334 330 325 318 308 302 295 284 280 279 277 278 274 270 274 279 283 285 284 279 277 276 274 287 292 288 278 263 248 236 226 221 222 227 235 238 231 225 222 220 219 218 217 217 217
209 218 232 247 257 263 265 266 268 274 281 289 295 303 308 307 307 311 311 313 317 320 324 330 334 337 340 339 337 337 330 325 323 317 312 307 295 287 281 276 273 268 269 274 275 272 271 269 269 276 276 270 279 292 293 291 276 250 229 216 214 219 226 233 234 225 219 219 217 215 216 217 217 217
214 221 234 250 259 261 259 258 267 279 286 295 301 304 309 313 313 312 311 315 326 333 335 337 336 336 339 336 334 335 331 329 330 325 321 318 311 302 293 282 271 264 273 283 283 268 261 262 263 267 272 273 277 281 283 289 276 246 222 210 214 222 227 229 224 216 213 213 212 212 215 216 218 218
212 222 236 250 252 244 247 257 268 284 298 304 308 313 317 313 309 311 318 330 341 343 341 339 335 335 338 335 332 334 333 333 334 331 328 326 322 317 310 298 286 275 277 287 290 276 264 260 256 257 263 269 279 280 278 284 273 235 208 205 214 221 225 222 212 208 210 209 208 210 214 216 218 218
215 226 236 242 234 229 241 252 253 262 292 317 327 329 316 308 312 324 338 348 350 346 344 339 333 334 337 334 332 332 332 334 335 332 329 330 330 328 324 318 312 301 292 294 294 283 272 266 261 259 258 256 263 270 264 276 273 217 186 195 208 212 218 216 205 202 204 204 205 207 209 213 215 214
217 223 223 216 212 218 223 227 241 255 270 305 325 317 309 316 332 347 355 359 356 348 342 337 332 333 337 337 336 336 337 339 339 336 336 340 346 349 347 346 347 345 336 325 314 300 285 275 270 265 255 244 245 248 249 278 281 226 181 181 191 198 207 207 199 196 196 197 201 203 204 208 209 207
206 201 195 197 198 198 210 229 246 257 254 258 283 304 322 343 359 5 6 5 358 348 340 336 333 334 338 341 344 346 347 347 346 345 343 345 352 358 357 354 355 358 359 355 346 338 322 295 277 266 251 236 238 243 240 258 277 239 176 167 171 181 195 196 193 192 190 188 193 199 202 206 205 204
182 180 180 188 190 185 199 228 244 237 233 252 276 334 6 12 15 17 16 10 2 352 344 338 337 340 344 347 351 354 354 353 353 353 350 346 353 359 357 350 348 352 358 5 8 6 357 345 324 282 249 232 234 243 238 238 264 286 115 138 152 155 168 175 176 178 179 180 187 194 198 201 202 203
177 180 182 184 188 192 200 210 211 207 209 215 57 42 32 26 22 21 20 17 12 3 354 347 345 348 351 353 355 357 357 357 358 360 357 352 355 360 2 357 343 345 354 5 11 14 11 8 12 21 30 152 202 220 201 71 32 24 35 62 89 104 130 153 160 166 174 180 187 192 195 197 199 201
178 184 190 189 191 196 198 192 184 180 172 142 90 55 42 32 25 22 21 18 13 7 2 357 354 352 354 356 358 359 359 359 1 3 1 358 358 3 6 3 347 343 347 355 2 7 9 10 25 57 64 62 61 60 59 51 33 28 31 40 50 57 69 104 156 179 183 182 185 189 192 195 196 200
180 183 188 188 191 193 189 183 177 165 151 134 97 65 47 32 26 25 23 17 13 10 7 4 360 357 356 357 359 1 358 357 0 4 4 3 4 6 6 360 349 351 350 348 355 2 5 7 13 36 59 63 60 54 49 42 26 22 29 34 32 29 32 46 105 176 181 181 183 183 185 190 193 198
180 182 184 185 191 193 185 181 176 159 141 123 98 75 52 38 29 25 23 18 14 12 11 8 5 3 2 360 360 1 358 356 359 4 7 8 9 8 7 2 348 351 358 357 352 356 3 7 9 10 16 45 58 50 42 37 30 22 24 29 24 16 17 28 49 143 172 181 183 175 170 182 188 194
181 185 186 185 189 189 184 182 176 159 144 129 110 89 64 47 33 24 23 19 15 15 14 11 8 6 5 3 3 4 4 2 2 5 7 8 7 6 7 7 358 357 4 360 350 355 4 6 4 7 18 23 39 47 33 29 30 30 25 18 15 14 13 20 44 81 118 167 184 180 166 166 177 187
181 188 191 189 188 187 185 185 178 162 153 147 122 96 74 55 38 29 24 20 20 23 20 15 13 10 8 7 7 8 10 9 8 7 7 6 7 6 5 4 2 1 3 3 3 7 9 4 3 12 22 16 25 38 7 8 23 31 29 18 10 11 12 18 31 43 45 61 152 177 172 167 178 192
183 187 192 191 189 186 186 187 182 169 163 161 145 116 92 69 46 35 29 23 24 27 25 21 19 16 14 14 11 9 11 12 12 11 9 7 8 7 1 359 1 360 0 7 12 14 13 10 10 14 16 17 24 18 356 354 9 19 23 22 15 12 16 19 19 16 18 27 41 82 137 156 176 197
189 189 191 190 187 186 186 187 183 175 168 166 159 141 115 91 65 46 36 29 27 27 27 26 24 20 19 20 17 14 15 15 13 11 7 6 8 6 2 1 1 358 358 5 10 12 14 14 8 3 359 357 340 319 314 305 339 5 21 30 24 16 16 15 12 10 11 10 12 38 114 130 141 168
194 194 193 189 185 184 185 185 182 178 173 169 167 156 132 106 83 57 41 33 29 27 28 29 27 25 24 22 19 20 20 19 17 13 8 8 10 8 6 6 4 1 2 2 2 5 9 8 4 1 356 353 345 335 336 341 355 7 18 29 33 29 23 18 17 16 10 3 6 35 96 110 114 131
194 195 193 189 186 185 184 184 183 179 174 172 171 164 147 122 95 66 46 35 29 28 30 32 31 29 27 25 22 22 20 18 19 17 13 12 12 11 12 14 10 6 7 3 355 358 1 3 7 12 15 18 27 36 31 23 10 358 1 12 27 38 40 36 34 30 22 19 23 32 38 44 74 114
195 195 192 189 187 187 185 185 184 180 175 175 175 173 163 145 116 88 61 42 34 31 33 35 35 32 31 29 27 26 24 21 19 18 17 16 14 13 14 15 11 6 5 1 355 356 2 9 16 23 28 31 35 42 38 19 3 340 348 1 17 33 44 46 45 41 36 36 38 33 16 6 18 55
198 197 193 189 188 189 189 189 187 182 179 177 179 181 178 166 145 128 108 61 44 41 38 37 38 37 35 34 31 30 30 27 23 21 22 20 18 15 12 11 10 9 7 5 3 6 12 18 21 23 28 30 30 33 35 18 9 353 347 356 6 17 28 38 46 47 47 49 51 46 36 31 26 8
201 200 194 190 189 189 190 191 189 186 183 181 184 189 188 177 164 150 138 100 51 45 41 36 37 38 38 38 38 36 34 31 29 28 27 25 23 22 17 13 14 16 14 10 9 12 16 19 22 26 31 28 24 21 18 13 10 1 352 358 6 10 13 20 30 36 39 45 51 51 50 54 56 35
204 201 196 193 191 190 190 191 191 191 190 189 190 195 194 187 178 165 148 130 69 50 42 33 33 36 36 37 38 38 36 35 34 34 33 30 28 27 24 21 20 19 19 17 13 10 12 17 22 27 29 27 25 23 19 17 18 9 0 4 9 8 7 11 15 16 20 27 36 45 51 56 61 63
Height
727 727 728 728 728 729 730 730 729 729 729 728 728 727 727 726 722 718 712 702 697 699 699 696 694 693 694 692 689 688 685 683 681 677 674 671 667 665 663 660 658 656 653 651 649 646 644 642 639 637 635 633 631 629 627 623 620 619 617 615 613 611 609 607 606 605 604 603 603 601 601 600 598 598
724 724 725 725 725 726 727 727 727 727 726 725 726 725 724 724 723 721 716 702 693 695 695 694 693 689 689 689 685 683 682 679 677 674 670 667 664 661 659 656 654 652 650 647 645 642 640 637 635 633 631 629 627 626 624 622 618 616 614 612 610 609 607 605 603 601 600 599 599 599 599 600 598 597
721 721 722 722 722 723 724 724 724 724 723 722 722 722 722 722 720 719 718 706 692 693 693 689 690 688 684 684 682 678 677 675 673 670 666 663 660 657 655 653 650 648 646 643 641 638 636 634 631 629 627 625 623 622 621 619 616 613 611 609 607 605 603 602 600 599 597 596 596 597 597 598 598 598
718 718 718 719 720 721 721 721 721 720 720 720 720 719 718 719 718 715 717 709 692 690 694 688 686 686 683 680 678 674 672 671 669 666 662 659 657 654 651 648 647 644 642 639 637 634 631 629 627 625 623 621 619 617 616 616 613 611 609 607 604 602 600 598 597 597 596 595 595 595 596 596 597 597
714 714 715 716 716 718 718 718 718 718 717 717 716 717 716 715 715 713 712 709 695 686 691 690 684 683 681 677 675 672 668 666 664 661 659 656 653 650 646 643 642 640 637 635 632 629 627 625 623 621 619 616 614 613 611 611 610 608 607 605 603 601 599 597 595 595 595 595 595 594 594 594 595 596
711 711 712 713 714 715 715 715 715 715 715 715 713 714 713 711 711 710 708 707 699 686 685 687 683 680 679 674 671 670 666 662 660 657 654 652 649 646 643 639 637 635 633 630 628 625 623 621 618 616 615 613 611 609 607 607 607 605 604 603 601 600 598 597 595 594 593 592 592 592 592 593 593 595
707 708 708 709 710 712 712 712 712 712 711 712 711 710 710 708 707 707 706 703 700 690 683 684 682 678 676 672 668 666 663 660 657 653 650 647 644 641 639 636 633 631 629 626 623 621 619 617 615 613 611 609 607 605 604 603 603 602 601 600 599 598 597 596 595 594 592 591 589 589 590 591 592 593
702 704 705 706 707 708 709 708 709 709 708 708 708 706 706 705 703 703 703 700 698 692 684 681 680 676 672 669 665 662 659 657 654 650 646 643 640 637 635 633 629 627 625 622 619 617 615 613 611 609 607 606 604 602 601 600 599 599 598 597 597 596 595 595 594 593 592 591 589 588 588 590 591 591
698 700 701 702 704 705 705 705 705 705 705 705 704 703 702 702 700 699 699 697 696 692 685 678 677 675 670 665 662 660 657 653 650 647 644 640 637 633 631 629 627 624 621 619 616 613 611 609 607 605 604 602 600 599 597 596 595 595 594 594 594 593 593 592 593 592 591 590 589 588 589 590 589 589
695 697 698 699 701 701 701 702 702 702 702 701 700 700 699 698 697 696 695 694 692 689 684 678 674 671 668 662 658 657 656 652 647 643 640 637 634 631 627 625 623 621 618 616 613 610 607 605 603 601 599 598 597 595 594 592 591 591 591 590 590 590 590 590 590 590 589 588 588 588 588 589 588 588
692 694 695 696 697 698 698 699 699 698 698 697 696 696 695 694 694 693 692 691 689 686 681 677 672 667 665 661 656 655 654 651 646 642 637 632 629 628 625 621 619 617 614 611 609 607 604 601 599 597 595 593 592 590 589 588 587 586 586 586 586 586 587 587 587 587 587 587 587 587 587 587 586 586
690 691 692 693 693 694 695 695 696 695 694 694 693 693 692 691 690 690 689 687 686 683 678 673 669 665 662 659 656 653 652 648 644 641 637 630 626 624 622 619 616 613 610 607 604 601 600 597 594 592 590 588 587 585 584 583 582 581 581 581 581 582 583 583 583 584 584 585 585 585 585 585 585 584
687 688 689 689 690 691 692 692 692 692 691 691 690 689 689 688 687 686 685 684 682 679 674 669 666 663 660 658 655 651 650 647 642 639 636 630 624 621 617 614 613 611 606 602 598 596 596 593 590 588 585 582 582 581 579 578 577 577 576 576 576 576 577 579 580 580 581 581 582 583 583 583 583 583
684 685 685 686 687 688 688 689 689 689 689 688 687 687 686 685 684 683 681 680 678 674 670 666 663 661 658 657 654 650 647 645 640 636 633 628 622 619 613 606 605 606 603 598 594 591 592 590 586 583 581 578 578 577 575 574 573 573 573 572 572 572 572 573 575 576 576 577 578 580 581 581 581 581
681 682 682 683 684 685 685 686 686 686 686 685 685 684 683 682 681 680 678 676 674 670 666 664 663 660 655 654 653 648 644 641 637 634 631 626 620 616 610 602 598 600 600 596 590 587 588 587 582 578 576 574 573 572 570 569 569 569 569 568 568 568 568 569 570 571 572 573 574 576 577 578 579 580
679 679 680 680 680 681 682 683 683 683 682 682 681 680 680 678 678 677 675 673 670 667 664 662 661 659 654 651 649 645 641 638 634 631 628 624 619 613 608 602 596 596 598 595 587 582 583 583 579 574 570 569 568 566 565 565 564 564 564 564 564 564 564 564 565 567 567 569 570 572 574 575 576 577
676 677 677 677 678 678 679 680 680 680 679 679 678 677 675 675 674 673 672 670 668 666 663 661 659 656 652 648 644 642 640 636 631 626 622 619 616 610 606 601 596 594 595 593 586 578 577 579 576 569 566 565 563 562 560 560 560 559 560 560 559 560 560 560 561 562 563 565 566 568 570 572 573 574
674 674 674 675 675 676 676 677 677 677 676 676 674 673 672 671 670 669 668 667 665 664 661 658 654 651 649 645 641 639 637 633 628 623 618 615 612 607 603 598 594 592 592 592 586 575 571 575 572 564 561 561 558 556 556 555 555 555 555 555 555 555 556 556 557 558 560 561 563 564 566 568 570 571
671 672 672 672 673 673 674 674 674 674 674 673 671 670 668 667 666 665 665 664 662 660 658 654 650 648 645 642 638 635 632 629 625 621 617 613 609 604 598 594 591 588 586 588 585 572 566 570 567 559 558 557 553 551 551 549 549 549 549 550 550 550 551 552 553 554 556 557 559 561 562 564 566 568
669 669 670 670 671 671 671 672 672 672 672 671 669 667 666 664 663 662 661 661 659 656 654 651 648 645 642 638 635 632 629 625 622 618 614 610 607 603 596 589 585 583 580 581 580 571 564 565 563 557 555 554 549 546 545 543 542 543 544 544 544 545 547 548 549 550 551 553 555 557 559 561 563 565
666 667 668 668 668 669 669 669 670 670 670 669 667 665 663 662 660 659 658 656 655 653 650 648 645 641 637 634 631 628 625 622 619 615 610 607 606 602 595 587 581 578 576 575 575 570 562 560 559 555 552 549 545 541 539 537 536 536 537 539 539 540 542 543 545 546 547 549 551 553 556 558 560 563
663 664 665 666 666 667 667 667 668 668 668 667 665 663 661 659 657 656 654 651 650 648 645 643 639 636 633 629 626 623 620 618 616 613 608 605 604 600 594 588 580 575 570 567 568 566 560 557 557 554 549 544 540 536 533 531 530 530 532 533 534 535 537 539 540 542 543 545 547 549 553 556 558 561
661 662 663 664 665 666 666 666 666 666 666 664 663 661 659 658 656 653 651 648 646 642 639 636 634 631 628 625 622 618 616 614 613 611 607 604 601 596 592 588 583 575 566 562 564 563 558 556 554 552 549 542 534 529 527 526 524 525 526 528 529 531 533 535 537 538 540 542 544 546 549 553 556 559
658 659 661 662 664 664 664 664 664 664 663 662 660 659 658 657 654 651 648 646 644 640 636 632 629 626 623 620 618 615 612 611 609 607 604 601 598 594 589 585 583 576 565 560 563 562 557 555 553 550 548 543 533 526 524 523 522 521 522 524 526 528 530 532 533 535 537 540 542 544 547 550 553 556
656 657 659 660 661 662 662 662 662 662 661 660 658 657 656 655 653 650 646 644 642 638 634 630 626 623 620 617 615 612 610 608 605 603 600 597 594 591 586 581 578 572 560 557 562 562 556 552 551 548 545 542 536 530 525 521 519 518 519 521 523 526 528 530 530 532 534 537 540 542 545 548 550 553
654 655 657 658 659 660 660 660 660 660 659 658 657 656 655 654 651 648 645 643 640 637 633 630 626 623 620 616 613 610 607 605 602 598 595 592 589 586 582 577 574 566 556 553 557 558 553 549 547 546 542 539 536 532 526 520 515 514 515 518 520 523 526 527 528 530 532 535 538 540 543 545 548 550
651 653 655 656 657 658 659 659 659 658 657 656 655 655 654 652 649 647 644 642 639 636 633 630 626 623 620 616 612 608 605 602 598 595 591 587 584 580 575 571 567 561 555 551 551 551 549 545 543 542 540 538 536 533 527 520 513 511 512 515 518 521 523 525 526 528 530 533 536 538 541 544 546 549
650 652 653 655 655 657 657 657 657 656 656 655 654 653 652 650 648 646 643 640 638 635 632 630 627 623 620 616 612 608 604 600 596 593 589 585 581 576 570 565 562 557 553 549 547 546 544 541 538 538 538 537 535 532 526 519 513 509 510 513 515 518 520 522 524 526 528 531 534 537 540 542 544 547
648 651 652 653 655 655 656 655 655 654 654 654 653 652 650 648 647 644 642 639 637 635 633 630 627 623 620 616 613 608 604 600 595 591 586 582 577 572 566 561 558 554 551 548 544 542 540 537 534 534 533 533 531 529 525 520 513 508 508 510 513 515 518 520 522 524 526 529 532 534 536 539 541 544
648 650 651 652 653 654 654 654 653 653 653 652 651 650 649 647 646 643 641 639 637 635 633 630 627 623 620 616 612 608 603 599 595 590 585 580 574 569 564 559 555 551 548 546 542 539 536 533 530 529 528 528 526 524 523 521 515 508 506 508 511 513 516 518 520 522 525 527 530 532 534 536 539 541
647 648 650 651 651 652 652 652 652 652 651 650 650 649 648 646 645 643 641 639 638 636 634 631 627 624 619 615 610 606 602 598 595 590 586 581 576 570 565 560 554 548 545 542 538 536 532 528 525 523 523 522 521 519 519 519 515 508 505 507 510 512 515 517 518 521 523 525 528 531 533 535 537 539
645 647 648 649 650 651 651 651 651 651 650 649 649 648 647 646 644 643 641 639 638 636 634 631 627 623 619 615 610 606 602 598 594 590 586 583 578 573 567 562 556 550 544 538 535 532 529 526 523 521 519 518 518 516 515 515 513 509 508 509 510 512 514 516 518 520 522 525 528 530 532 534 535 537
644 646 647 648 649 650 650 650 650 650 649 649 648 647 646 645 644 642 640 639 637 635 633 630 627 623 619 615 611 606 602 598 595 591 588 584 580 575 569 565 562 557 551 545 540 534 530 526 523 523 521 519 516 514 514 514 515 514 513 512 512 513 515 517 518 520 523 525 527 529 531 533 534 536
642 644 646 647 647 648 648 648 649 649 648 648 647 646 645 644 643 642 640 639 637 635 633 631 628 625 621 616 612 608 604 600 596 592 589 585 581 577 572 568 565 561 557 553 548 541 536 530 525 523 523 520 516 515 516 518 519 518 516 515 515 516 518 519 520 521 522 524 526 528 530 532 534 536
640 642 644 645 646 647 647 647 648 647 647 647 646 645 644 644 643 642 640 639 637 636 634 631 629 626 622 619 615 611 607 603 598 594 590 586 583 580 577 573 570 566 562 558 553 548 544 538 531 526 524 520 517 517 520 523 524 522 520 520 520 521 520 520 520 521 523 525 527 528 530 532 534 536
639 640 642 643 644 645 645 646 646 646 646 646 645 644 644 644 643 642 641 640 638 636 634 632 630 627 624 621 617 614 610 606 601 597 593 589 586 583 580 577 574 570 567 564 559 554 549 544 539 534 530 526 523 525 528 531 531 529 527 526 526 525 523 522 521 521 523 525 527 528 529 531 533 535
637 639 640 641 642 643 644 644 645 645 645 645 645 644 643 643 643 642 641 640 639 637 635 633 631 628 625 622 619 615 612 609 605 601 597 594 590 586 583 580 576 573 570 567 563 559 554 550 547 544 541 538 536 536 537 536 535 533 533 532 531 529 527 524 522 522 523 525 526 528 529 530 532 534
634 637 638 640 641 641 642 643 644 644 644 644 644 644 643 643 643 642 642 641 639 637 636 634 632 630 627 624 620 617 614 610 607 604 601 598 594 591 588 585 581 577 574 570 566 561 558 555 553 551 550 549 547 546 544 542 539 538 538 537 535 533 530 528 526 526 526 525 526 527 528 530 531 533
632 634 636 637 639 639 640 642 642 642 643 643 644 643 643 643 643 642 642 641 639 638 636 635 633 631 628 625 623 620 617 613 610 608 605 602 599 596 593 589 586 582 577 573 568 564 561 560 558 557 557 556 554 553 552 549 546 544 542 540 539 537 535 533 532 530 528 527 527 527 528 529 531 533
631 633 634 636 637 638 639 640 641 641 642 642 643 643 642 642 642 642 642 641 640 638 637 635 634 632 629 627 625 622 619 617 614 612 609 606 603 601 597 594 591 586 581 577 573 569 567 566 565 564 562 560 557 554 552 551 549 547 544 542 542 542 541 539 537 534 532 531 529 528 528 530 531 532
629 631 633 634 636 637 638 639 640 640 641 641 642 642 642 642 642 642 641 641 640 639 638 636 634 633 631 629 626 624 621 619 617 614 612 609 606 604 601 597 594 591 587 583 580 577 575 575 572 569 567 563 557 553 553 554 554 552 549 546 545 544 543 542 541 540 538 535 532 531 531 532 532 532
628 629 631 633 634 636 637 638 639 639 640 640 641 642 642 641 641 641 641 641 640 639 638 637 635 634 632 630 628 626 624 622 619 617 615 612 609 606 604 601 598 596 594 591 588 585 582 579 575 571 568 564 559 558 561 565 564 561 556 552 548 546 545 544 544 544 542 539 537 537 538 537 535 535
626 628 630 631 633 634 636 637 638 638 639 639 640 641 641 641 641 641 641 641 640 639 638 637 636 635 633 632 630 628 626 624 622 620 618 616 613 611 608 606 604 602 599 595 592 589 585 581 577 574 571 568 566 567 570 571 570 566 563 558 554 550 548 546 546 546 545 544 542 543 544 543 542 542
625 627 628 630 631 633 634 636 636 637 638 639 640 641 641 641 641 641 641 641 640 639 638 637 636 635 634 633 631 629 628 626 624 622 620 618 617 615 613 610 607 605 602 598 595 591 587 585 582 579 576 575 575 574 574 574 573 571 568 565 561 557 553 550 548 547 547 546 545 545 545 545 545 545
623 625 627 628 630 631 633 634 635 636 637 638 639 640 640 640 640 640 640 640 640 639 638 637 637 636 635 633 632 630 629 628 626 624 622 621 619 617 615 613 610 608 605 602 599 595 592 589 586 584 583 582 581 580 579 578 577 575 572 569 566 563 560 557 555 553 551 550 549 548 547 546 546 546